�N����,����,�~����,�C��,���x,�C��,����,���ϕ���,�ő�u�ԕ���,�ő厞����,���˗�,�I�_���x,�n�����x,�ő啗���N��,DTYPE
"16/09/02","00:10",0.0,19.2,86.7,1005.0,304.7,1.0,1.3,323.1,0.00,17.0,24.4,"00:00:40",1
"16/09/02","00:20",0.0,19.0,86.8,1004.8,301.2,0.8,1.1,307.4,0.00,16.8,24.6,"00:12:16",1
"16/09/02","00:30",0.0,19.0,86.2,1004.8,297.8,0.7,1.2,323.4,0.00,16.7,24.3,"00:22:00",1
"16/09/02","00:40",0.0,19.2,86.0,1005.0,309.8,1.0,1.3,343.5,0.00,16.8,24.5,"00:33:12",1
"16/09/02","00:50",0.0,19.2,85.4,1005.2,296.6,0.7,1.0,314.0,0.00,16.7,24.3,"00:40:24",1
"16/09/02","01:00",0.0,19.4,85.1,1005.2,305.5,0.7,1.4,285.2,0.00,16.9,24.3,"00:53:20",1
"16/09/02","01:10",0.0,19.4,84.7,1005.2,298.8,0.7,1.3,322.0,0.00,16.8,24.1,"01:01:44",1
"16/09/02","01:20",0.0,19.5,84.4,1005.2,295.1,0.7,1.1,336.6,0.00,16.8,24.0,"01:12:32",1
"16/09/02","01:30",0.0,19.6,85.1,1005.0,295.6,0.7,1.2,311.6,0.00,17.1,23.9,"01:23:04",1
"16/09/02","01:40",0.0,19.5,85.3,1005.5,298.9,0.7,1.1,333.5,0.00,17.0,24.1,"01:31:52",1
"16/09/02","01:50",0.0,19.6,84.8,1005.2,296.3,0.6,1.1,322.4,0.00,17.0,23.9,"01:49:20",1
"16/09/02","02:00",0.0,19.7,84.6,1005.0,310.7,0.8,1.8,332.8,0.00,17.1,23.8,"01:57:28",1
"16/09/02","02:10",0.0,19.5,85.6,1005.2,326.0,1.3,2.0,328.4,0.00,17.1,23.9,"02:07:20",1
"16/09/02","02:20",0.0,19.2,87.0,1005.2,306.5,1.1,1.8,324.1,0.00,17.0,23.8,"02:16:16",1
"16/09/02","02:30",0.0,19.0,88.2,1005.0,308.6,1.0,1.3,323.7,0.00,17.0,23.7,"02:29:28",1
"16/09/02","02:40",0.0,19.0,88.7,1005.2,309.4,0.8,1.1,318.5,0.00,17.1,23.7,"02:33:12",1
"16/09/02","02:50",0.0,19.1,88.6,1005.0,300.9,0.7,1.2,332.4,0.00,17.2,23.6,"02:45:04",1
"16/09/02","03:00",0.0,19.3,88.6,1005.0,305.8,0.8,1.2,313.6,0.00,17.4,23.7,"02:51:12",1
"16/09/02","03:10",0.0,19.3,88.5,1005.0,310.3,0.8,1.2,324.5,0.00,17.4,23.6,"03:09:28",1
"16/09/02","03:20",0.0,19.3,88.5,1005.2,308.4,0.8,1.2,309.0,0.00,17.4,23.5,"03:11:20",1
"16/09/02","03:30",0.0,19.3,88.8,1005.0,301.6,0.8,1.7,327.7,0.00,17.4,23.4,"03:25:52",1
"16/09/02","03:40",0.0,19.4,89.1,1005.0,297.0,0.7,1.2,313.6,0.00,17.6,23.6,"03:30:02",1
"16/09/02","03:50",0.0,19.3,89.4,1005.2,305.2,0.7,1.1,317.7,0.00,17.6,23.4,"03:40:08",1
"16/09/02","04:00",0.0,19.4,89.8,1005.0,295.9,0.8,1.1,304.1,0.00,17.7,23.3,"03:54:56",1
"16/09/02","04:10",0.0,19.4,90.0,1004.8,292.5,0.7,1.2,332.9,0.00,17.8,23.4,"04:04:08",1
"16/09/02","04:20",0.0,19.5,90.0,1005.0,305.2,0.7,1.8,317.0,0.00,17.9,23.3,"04:10:40",1
"16/09/02","04:30",0.0,19.5,90.2,1005.5,297.0,0.8,1.2,280.2,0.00,17.9,23.2,"04:20:32",1
"16/09/02","04:40",0.0,19.5,90.3,1005.2,297.7,0.7,1.1,318.2,0.00,17.9,23.2,"04:32:48",1
"16/09/02","04:50",0.0,19.5,90.5,1005.2,304.3,0.8,1.3,322.1,0.00,17.9,23.3,"04:46:40",1
"16/09/02","05:00",0.0,19.4,90.7,1005.5,291.2,0.7,1.2,304.5,0.00,17.9,23.2,"04:58:48",1
"16/09/02","05:10",0.0,19.5,90.7,1005.7,305.4,0.8,1.3,320.4,0.00,18.0,23.2,"05:05:52",1
"16/09/02","05:20",0.0,19.5,90.8,1005.7,305.2,0.8,1.2,306.6,0.00,18.0,23.2,"05:14:24",1
"16/09/02","05:30",0.0,19.4,90.9,1006.0,303.4,0.7,1.2,326.3,0.00,17.9,23.1,"05:22:48",1
"16/09/02","05:40",0.0,19.4,91.1,1005.7,308.1,0.7,1.3,329.6,0.00,18.0,23.2,"05:33:28",1
"16/09/02","05:50",0.0,19.3,91.5,1006.0,315.7,1.0,1.4,314.3,0.00,17.9,23.2,"05:47:36",1
"16/09/02","06:00",0.0,19.4,92.2,1006.2,316.0,0.8,1.2,346.5,0.00,18.1,23.1,"05:56:32",1
"16/09/02","06:10",0.0,19.9,92.1,1006.2,302.7,0.6,1.1,320.9,0.01,18.6,23.1,"06:00:08",1
"16/09/02","06:20",0.0,20.7,91.6,1006.4,308.2,0.7,1.6,320.3,0.02,19.3,23.2,"06:13:20",1
"16/09/02","06:30",0.0,21.5,90.0,1006.0,319.7,0.5,1.1,332.1,0.03,19.8,23.1,"06:21:52",1
"16/09/02","06:40",0.0,22.8,84.7,1006.4,295.6,0.3,0.6,330.5,0.04,20.1,23.0,"06:38:00",1
"16/09/02","06:50",0.0,23.4,81.4,1006.2,305.9,0.3,1.0,347.6,0.05,20.1,23.2,"06:49:20",1
"16/09/02","07:00",0.0,23.9,79.8,1006.7,324.7,0.3,1.1,354.4,0.05,20.2,23.5,"06:53:20",1
"16/09/02","07:10",0.0,24.1,80.8,1006.4,341.0,0.3,0.9,330.3,0.08,20.6,23.5,"07:02:08",1
"16/09/02","07:20",0.0,24.8,78.5,1006.2,334.7,0.3,1.0,332.9,0.09,20.8,23.5,"07:11:52",1
"16/09/02","07:30",0.0,25.6,77.0,1006.2,338.5,0.3,1.1,26.2,0.13,21.3,23.4,"07:20:40",1
"16/09/02","07:40",0.0,26.2,73.9,1005.7,198.2,0.5,1.0,211.4,0.16,21.2,23.4,"07:33:44",1
"16/09/02","07:50",0.0,26.4,73.6,1005.7,186.1,0.6,1.9,141.1,0.18,21.3,23.8,"07:49:04",1
"16/09/02","08:00",0.0,26.8,72.6,1005.5,141.0,0.6,1.7,121.9,0.17,21.5,23.9,"07:56:08",1
"16/09/02","08:10",0.0,26.9,71.3,1005.0,138.5,0.8,2.7,220.8,0.19,21.3,23.8,"08:02:16",1
"16/09/02","08:20",0.0,27.6,68.4,1004.8,114.0,1.1,2.7,155.9,0.27,21.3,24.2,"08:18:00",1
"16/09/02","08:30",0.0,28.2,67.2,1005.0,132.4,0.8,1.8,129.1,0.29,21.6,24.3,"08:26:48",1
"16/09/02","08:40",0.0,28.2,66.5,1005.5,146.1,1.1,2.6,188.6,0.30,21.4,24.6,"08:36:16",1
"16/09/02","08:50",0.0,28.0,65.3,1005.2,151.8,1.3,2.2,142.8,0.32,20.9,24.7,"08:42:08",1
"16/09/02","09:00",0.0,28.2,66.0,1005.2,137.2,1.2,2.8,140.7,0.30,21.3,24.9,"08:54:40",1
"16/09/02","09:10",0.0,28.4,65.0,1005.5,138.0,1.2,3.1,193.3,0.30,21.2,25.2,"09:09:00",1
"16/09/02","09:20",0.0,28.5,64.8,1005.7,142.8,1.1,2.5,167.0,0.23,21.3,25.3,"09:10:56",1
"16/09/02","09:30",0.0,28.2,63.3,1005.5,128.5,0.8,1.8,179.2,0.18,20.6,25.2,"09:29:20",1
"16/09/02","09:40",0.0,29.7,59.2,1006.0,128.7,1.2,3.1,139.7,0.41,20.9,25.5,"09:30:02",1
"16/09/02","09:50",0.0,28.6,61.2,1006.0,144.8,1.5,3.4,108.5,0.29,20.4,25.6,"09:42:32",1
"16/09/02","10:00",0.0,29.7,58.1,1006.2,119.8,1.0,2.6,95.2,0.38,20.6,25.9,"09:52:32",1
"16/09/02","10:10",0.0,30.2,58.4,1006.2,127.0,1.3,3.6,132.1,0.37,21.2,25.8,"10:01:52",1
"16/09/02","10:20",0.0,29.8,59.6,1006.0,103.5,1.1,3.3,31.1,0.30,21.1,26.0,"10:19:20",1
"16/09/02","10:30",0.0,29.2,57.8,1005.7,128.7,1.3,3.1,172.1,0.26,20.1,26.1,"10:24:40",1
"16/09/02","10:40",0.0,31.1,55.6,1006.0,143.9,1.2,2.6,186.5,0.49,21.2,26.6,"10:34:08",1
"16/09/02","10:50",0.0,30.8,55.3,1006.2,153.1,1.5,3.3,122.2,0.41,20.8,26.5,"10:48:40",1
"16/09/02","11:00",0.0,31.2,49.8,1006.2,145.2,1.6,4.1,118.9,0.50,19.5,26.8,"10:52:40",1
"16/09/02","11:10",0.0,30.0,53.6,1006.0,129.7,1.1,2.6,123.8,0.23,19.6,26.7,"11:09:28",1
"16/09/02","11:20",0.0,30.7,53.7,1005.5,128.6,1.5,4.1,129.8,0.38,20.3,26.9,"11:17:12",1
"16/09/02","11:30",0.0,31.3,50.7,1005.7,163.7,2.1,4.0,189.2,0.57,19.9,27.2,"11:23:28",1
"16/09/02","11:40",0.0,31.4,51.7,1005.5,171.9,2.0,5.2,189.5,0.48,20.3,27.5,"11:32:40",1
"16/09/02","11:50",0.0,32.3,48.0,1006.0,166.4,1.8,3.7,126.2,0.59,19.9,27.8,"11:47:36",1
"16/09/02","12:00",0.0,30.7,53.2,1005.7,168.1,1.7,6.6,209.5,0.33,20.1,27.9,"11:51:04",1
"16/09/02","12:10",0.0,31.9,50.8,1005.5,154.5,1.3,3.3,122.7,0.46,20.5,28.2,"12:03:52",1
"16/09/02","12:20",0.0,32.9,49.5,1005.5,164.1,2.0,4.7,206.0,0.61,21.0,28.3,"12:10:56",1
"16/09/02","12:30",0.0,31.7,49.0,1005.5,139.7,1.6,3.1,132.4,0.45,19.7,28.3,"12:25:12",1
"16/09/02","12:40",0.0,32.9,49.7,1005.5,133.8,1.5,2.8,224.3,0.61,21.0,28.7,"12:32:40",1
"16/09/02","12:50",0.0,33.5,46.8,1006.0,143.9,1.5,3.2,116.4,0.64,20.6,29.0,"12:47:20",1
"16/09/02","13:00",0.0,32.7,48.9,1006.0,141.0,1.3,2.7,131.6,0.47,20.6,28.9,"12:54:00",1
"16/09/02","13:10",0.0,33.4,45.1,1006.0,159.2,1.7,3.6,215.7,0.62,19.9,29.4,"13:06:48",1
"16/09/02","13:20",0.0,32.8,46.2,1005.5,94.5,1.2,3.1,124.5,0.43,19.8,29.2,"13:15:12",1
"16/09/02","13:30",0.0,33.3,44.2,1005.2,125.1,1.0,2.5,93.5,0.37,19.5,29.5,"13:20:40",1
"16/09/02","13:40",0.0,33.9,46.3,1005.5,18.3,1.2,3.2,71.7,0.57,20.8,29.6,"13:35:20",1
"16/09/02","13:50",0.0,34.6,44.2,1005.0,60.5,1.1,2.5,8.4,0.60,20.7,29.9,"13:44:48",1
"16/09/02","14:00",0.0,33.3,46.9,1005.5,326.5,1.1,2.8,98.6,0.44,20.5,29.9,"13:50:08",1
"16/09/02","14:10",0.0,33.2,45.4,1005.5,155.8,1.1,2.1,133.4,0.41,19.9,30.1,"14:05:04",1
"16/09/02","14:20",0.0,32.7,47.6,1005.5,153.0,1.1,2.1,165.6,0.24,20.2,29.9,"14:11:12",1
"16/09/02","14:30",0.0,32.0,50.5,1004.8,103.0,1.0,2.4,89.2,0.15,20.5,29.9,"14:20:16",1
"16/09/02","14:40",0.0,31.8,50.2,1004.5,117.3,0.6,1.7,139.5,0.13,20.2,30.2,"14:34:32",1
"16/09/02","14:50",0.0,32.3,50.4,1004.1,103.7,0.6,2.1,62.8,0.19,20.7,29.9,"14:43:36",1
"16/09/02","15:00",0.0,31.9,51.2,1004.3,91.3,1.1,2.7,58.4,0.16,20.6,29.7,"14:54:00",1
"16/09/02","15:10",0.0,31.5,51.7,1003.6,83.6,0.8,2.8,355.0,0.10,20.4,29.7,"15:00:16",1
"16/09/02","15:20",0.0,31.6,52.4,1003.4,48.5,1.0,2.5,84.7,0.06,20.7,29.7,"15:15:28",1
"16/09/02","15:30",0.0,31.1,54.1,1003.1,26.6,1.1,2.8,0.0,0.03,20.8,29.5,"15:24:56",1
"16/09/02","15:40",0.0,30.9,56.2,1002.6,28.7,1.1,2.4,62.1,0.05,21.2,29.4,"15:33:44",1
"16/09/02","15:50",0.0,31.1,57.6,1002.9,15.7,0.6,1.4,41.5,0.09,21.8,29.3,"15:40:24",1
"16/09/02","16:00",0.0,30.8,55.8,1002.9,36.2,1.0,2.7,20.4,0.02,21.0,29.1,"15:55:44",1
"16/09/02","16:10",0.0,30.5,56.1,1002.6,40.2,0.6,2.5,76.0,0.01,20.8,29.0,"16:08:48",1
"16/09/02","16:20",0.0,30.4,56.9,1002.4,75.8,1.1,2.6,96.7,0.02,20.9,28.9,"16:13:36",1
"16/09/02","16:30",0.0,30.5,56.7,1002.2,114.0,0.8,1.8,123.2,0.02,21.0,28.9,"16:25:44",1
"16/09/02","16:40",0.0,30.4,59.3,1002.4,194.0,0.7,1.6,226.8,0.04,21.6,28.7,"16:36:08",1
"16/09/02","16:50",0.0,30.2,60.7,1002.4,352.5,0.5,1.6,354.3,0.03,21.8,28.7,"16:45:12",1
"16/09/02","17:00",0.0,30.1,61.9,1002.2,3.1,0.5,1.8,354.8,0.02,22.0,28.5,"16:53:20",1
"16/09/02","17:10",0.0,29.7,61.8,1002.2,283.9,0.2,1.0,351.3,0.00,21.6,28.3,"17:09:36",1
"16/09/02","17:20",0.0,29.3,63.7,1002.4,95.1,1.0,1.6,22.8,0.00,21.7,28.2,"17:11:36",1
"16/09/02","17:30",0.0,29.3,64.7,1002.2,188.6,1.3,2.8,237.6,0.00,22.0,28.2,"17:26:08",1
"16/09/02","17:40",0.0,29.4,61.4,1002.4,144.9,1.1,2.8,130.0,0.00,21.2,28.2,"17:34:32",1
"16/09/02","17:50",0.0,29.8,59.8,1001.9,152.7,1.3,3.1,151.0,0.01,21.2,28.1,"17:48:08",1
"16/09/02","18:00",0.0,29.8,60.2,1002.4,145.6,1.2,2.8,158.9,0.00,21.3,27.9,"17:55:20",1
"16/09/02","18:10",0.0,29.7,60.7,1002.2,121.5,1.1,2.9,157.4,0.00,21.3,28.1,"18:00:16",1
"16/09/02","18:20",0.0,29.5,61.0,1002.2,147.7,1.2,2.8,119.5,0.00,21.2,27.9,"18:19:28",1
"16/09/02","18:30",0.0,29.3,61.1,1002.6,128.9,1.2,3.1,126.1,0.00,21.1,27.7,"18:20:16",1
"16/09/02","18:40",0.0,29.0,62.0,1003.1,167.3,1.2,2.7,179.6,0.00,21.0,27.5,"18:33:04",1
"16/09/02","18:50",0.0,28.9,61.7,1003.1,155.4,1.6,3.6,128.7,0.00,20.9,27.6,"18:41:52",1
"16/09/02","19:00",0.0,28.8,61.7,1003.4,166.3,1.3,3.9,213.8,0.00,20.8,27.5,"18:54:16",1
"16/09/02","19:10",0.0,28.6,62.1,1003.6,160.5,1.3,2.6,206.2,0.00,20.7,27.6,"19:04:00",1
"16/09/02","19:20",0.0,28.4,62.8,1003.6,153.4,0.7,1.9,124.5,0.00,20.7,27.3,"19:16:32",1
"16/09/02","19:30",0.0,28.2,63.9,1003.6,135.3,0.7,2.5,92.0,0.00,20.8,27.4,"19:20:08",1
"16/09/02","19:40",0.0,28.0,63.9,1003.8,132.1,0.7,2.0,186.3,0.00,20.6,27.1,"19:35:28",1
"16/09/02","19:50",0.0,27.9,64.2,1003.8,157.6,0.7,1.8,190.3,0.00,20.6,27.3,"19:40:08",1
"16/09/02","20:00",0.0,27.8,64.0,1004.3,152.7,0.7,2.4,182.2,0.00,20.4,27.1,"19:57:36",1
"16/09/02","20:10",0.0,27.7,64.1,1004.3,130.7,0.7,2.0,209.9,0.00,20.3,27.0,"20:07:20",1
"16/09/02","20:20",0.0,27.6,63.5,1004.3,154.4,0.6,2.2,138.8,0.00,20.1,26.9,"20:19:44",1
"16/09/02","20:30",0.0,27.6,64.0,1004.3,178.2,0.6,1.8,223.6,0.00,20.2,27.0,"20:25:52",1
"16/09/02","20:40",0.0,27.5,65.1,1004.5,179.4,0.6,2.1,225.3,0.00,20.4,26.9,"20:38:56",1
"16/09/02","20:50",0.0,27.3,64.1,1004.3,160.8,0.7,1.8,221.6,0.00,20.0,26.6,"20:46:48",1
"16/09/02","21:00",0.0,27.2,63.3,1004.8,179.2,0.8,2.4,135.5,0.00,19.7,26.6,"20:50:56",1
"16/09/02","21:10",0.0,27.1,61.4,1004.8,175.5,0.8,1.8,100.4,0.00,19.1,26.7,"21:08:08",1
"16/09/02","21:20",0.0,27.1,59.6,1004.8,163.1,0.7,1.9,154.8,0.00,18.6,26.5,"21:18:16",1
"16/09/02","21:30",0.0,27.1,59.5,1005.0,212.0,0.6,1.3,190.1,0.00,18.6,26.5,"21:20:08",1
"16/09/02","21:40",0.0,26.5,68.7,1005.0,331.7,0.8,1.6,13.2,0.00,20.3,26.4,"21:32:24",1
"16/09/02","21:50",0.0,25.5,72.3,1005.0,330.7,0.6,1.3,316.4,0.00,20.2,26.6,"21:48:48",1
"16/09/02","22:00",0.0,24.9,74.7,1005.2,291.4,0.6,1.8,344.1,0.00,20.1,26.2,"21:50:32",1
"16/09/02","22:10",0.0,24.5,76.9,1005.5,302.6,0.5,1.1,337.9,0.00,20.2,26.2,"22:05:44",1
"16/09/02","22:20",0.0,24.2,78.0,1005.5,305.4,0.5,0.9,339.9,0.00,20.2,26.2,"22:15:12",1
"16/09/02","22:30",0.0,24.1,79.4,1005.5,316.0,0.5,1.0,339.5,0.00,20.4,26.0,"22:20:02",1
"16/09/02","22:40",0.0,23.9,80.1,1005.2,305.9,0.7,1.3,338.6,0.00,20.3,25.8,"22:30:56",1
"16/09/02","22:50",0.0,23.9,80.5,1005.2,306.0,0.7,1.2,333.3,0.00,20.4,26.0,"22:48:16",1
"16/09/02","23:00",0.0,23.9,80.8,1005.5,311.1,0.6,1.3,342.0,0.00,20.4,25.8,"22:59:12",1
"16/09/02","23:10",0.0,23.8,82.0,1005.0,290.6,0.6,1.8,308.3,0.00,20.6,25.9,"23:09:20",1
"16/09/02","23:20",0.0,24.0,80.4,1005.2,270.4,0.7,2.5,301.8,0.00,20.5,25.9,"23:12:08",1
"16/09/02","23:30",0.0,24.1,80.0,1006.0,325.0,0.8,1.4,343.1,0.00,20.5,25.7,"23:26:00",1
"16/09/02","23:40",0.0,23.9,80.7,1006.0,311.1,0.6,1.1,327.0,0.00,20.4,25.8,"23:38:40",1
"16/09/02","23:50",0.0,23.4,82.1,1005.7,326.8,0.8,1.6,352.9,0.00,20.2,25.7,"23:48:56",1
"16/09/02","24:00",0.0,23.0,83.5,1005.7,304.3,0.8,1.6,317.1,0.00,20.1,25.6,"23:54:00",1
